NOZ941 EKCH-ENGM

Flight info

Callsign NOZ941
Flight time 0h 54m
Altitude 38000
Route VEDAR DCT SABAK DCT LUNIP
Aircraft B738/M-SDE2E3GHIJ1LRWXY/LB1

Departure

Time 2026-05-05 14:34
Airport Copenhagen Kastrup Airport (EKCH)

Arrival

Time 2026-05-05 15:28
Airport Oslo-Gardermoen International Airport (ENGM)
Time Latitude Longitude Altitude Speed Heading
2026-05-05 13:57 55.62815 12.64219 27 ft 0 kts 123°
2026-05-05 14:24 55.62820 12.64207 27 ft 4 kts 126°
2026-05-05 14:24 55.62837 12.64170 23 ft 4 kts 130°
2026-05-05 14:24 55.62839 12.64165 23 ft 0 kts 127°
2026-05-05 14:27 55.62838 12.64166 23 ft 1 kts 139°
2026-05-05 14:27 55.62819 12.64154 25 ft 2 kts 243°
2026-05-05 14:28 55.62821 12.64108 24 ft 6 kts 272°
2026-05-05 14:28 55.62806 12.63995 25 ft 13 kts 229°
2026-05-05 14:28 55.62711 12.63879 23 ft 19 kts 212°
2026-05-05 14:28 55.62639 12.63893 23 ft 11 kts 127°
2026-05-05 14:29 55.62576 12.64069 23 ft 22 kts 123°
2026-05-05 14:29 55.62489 12.64298 24 ft 23 kts 127°
2026-05-05 14:29 55.62371 12.64438 23 ft 22 kts 193°
2026-05-05 14:29 55.62223 12.64401 20 ft 21 kts 168°
2026-05-05 14:30 55.62078 12.64450 23 ft 21 kts 169°
2026-05-05 14:30 55.61939 12.64496 23 ft 20 kts 169°
2026-05-05 14:30 55.61803 12.64541 25 ft 19 kts 169°
2026-05-05 14:30 55.61673 12.64557 23 ft 19 kts 202°
2026-05-05 14:31 55.61564 12.64435 24 ft 18 kts 213°
2026-05-05 14:31 55.61461 12.64316 23 ft 18 kts 212°
2026-05-05 14:31 55.61359 12.64200 24 ft 17 kts 213°
2026-05-05 14:31 55.61262 12.64089 25 ft 16 kts 213°
2026-05-05 14:32 55.61168 12.63981 24 ft 16 kts 213°
2026-05-05 14:32 55.61071 12.63869 23 ft 19 kts 213°
2026-05-05 14:32 55.60939 12.63719 23 ft 26 kts 213°
2026-05-05 14:32 55.60775 12.63635 23 ft 25 kts 144°
2026-05-05 14:33 55.60738 12.63699 25 ft 0 kts 131°
2026-05-05 14:33 55.60716 12.63743 26 ft 10 kts 131°
2026-05-05 14:33 55.60689 12.63855 24 ft 11 kts 83°
2026-05-05 14:34 55.60769 12.64012 25 ft 36 kts 41°
2026-05-05 14:34 55.61146 12.64596 23 ft 106 kts 40°
2026-05-05 14:34 55.61829 12.65668 146 ft 146 kts 40°
2026-05-05 14:34 55.62574 12.66891 796 ft 151 kts 39°
2026-05-05 14:35 55.63381 12.68129 1571 ft 154 kts 38°
2026-05-05 14:35 55.64229 12.69410 2080 ft 172 kts 38°
2026-05-05 14:35 55.65198 12.70820 2341 ft 197 kts 31°
2026-05-05 14:35 55.66581 12.71444 2513 ft 220 kts 351°
2026-05-05 14:36 55.67990 12.70246 2915 ft 238 kts 329°
2026-05-05 14:36 55.69520 12.69035 3531 ft 244 kts 342°
2026-05-05 14:36 55.71136 12.68096 4316 ft 246 kts 341°
2026-05-05 14:36 55.72749 12.67106 5103 ft 248 kts 340°
2026-05-05 14:37 55.74395 12.66069 5755 ft 255 kts 340°
2026-05-05 14:37 55.75530 12.65342 6246 ft 257 kts 339°
2026-05-05 14:37 55.77211 12.64254 6878 ft 266 kts 338°
2026-05-05 14:37 55.78952 12.63113 7649 ft 267 kts 336°
2026-05-05 14:38 55.80734 12.61937 8399 ft 272 kts 336°
2026-05-05 14:38 55.82506 12.60760 9160 ft 276 kts 335°
2026-05-05 14:38 55.84317 12.59553 9961 ft 280 kts 334°
2026-05-05 14:38 55.86188 12.58297 10408 ft 297 kts 334°
2026-05-05 14:39 55.88199 12.56937 10636 ft 319 kts 335°
2026-05-05 14:39 55.90311 12.55513 11194 ft 328 kts 335°
2026-05-05 14:39 55.92434 12.54085 11932 ft 332 kts 334°
2026-05-05 14:39 55.94594 12.52634 12761 ft 335 kts 334°
2026-05-05 14:40 55.96809 12.51142 13631 ft 338 kts 333°
2026-05-05 14:40 55.99022 12.49646 14332 ft 343 kts 333°
2026-05-05 14:40 56.01241 12.48142 15055 ft 347 kts 333°
2026-05-05 14:40 56.03519 12.46598 15816 ft 350 kts 333°
2026-05-05 14:41 56.05811 12.45041 16561 ft 355 kts 333°
2026-05-05 14:41 56.08131 12.43462 17289 ft 359 kts 333°
2026-05-05 14:41 56.10477 12.41864 18018 ft 363 kts 333°
2026-05-05 14:41 56.12854 12.40243 18668 ft 367 kts 333°
2026-05-05 14:42 56.15258 12.38601 19324 ft 370 kts 333°
2026-05-05 14:42 56.17647 12.36969 19979 ft 373 kts 333°
2026-05-05 14:42 56.20095 12.35293 20612 ft 376 kts 333°
2026-05-05 14:42 56.22557 12.33605 21231 ft 380 kts 333°
2026-05-05 14:43 56.25033 12.31908 21908 ft 382 kts 332°
2026-05-05 14:43 56.27501 12.30211 22519 ft 385 kts 332°
2026-05-05 14:43 56.30020 12.28474 23094 ft 389 kts 332°
2026-05-05 14:43 56.32555 12.26724 23649 ft 392 kts 332°
2026-05-05 14:44 56.35113 12.24958 24123 ft 395 kts 332°
2026-05-05 14:44 56.37689 12.23177 24622 ft 398 kts 332°
2026-05-05 14:44 56.40285 12.21380 25103 ft 400 kts 332°
2026-05-05 14:44 56.42895 12.19571 25565 ft 403 kts 332°
2026-05-05 14:45 56.45493 12.17767 26041 ft 406 kts 332°
2026-05-05 14:45 56.48149 12.15921 26513 ft 408 kts 332°
2026-05-05 14:45 56.50807 12.14069 26947 ft 411 kts 332°
2026-05-05 14:45 56.53523 12.12334 27410 ft 418 kts 338°
2026-05-05 14:46 56.56404 12.11282 27848 ft 426 kts 343°
2026-05-05 14:46 56.59360 12.10459 28258 ft 430 kts 345°
2026-05-05 14:46 56.62308 12.09684 28639 ft 433 kts 345°
2026-05-05 14:46 56.65305 12.08901 29021 ft 436 kts 345°
2026-05-05 14:47 56.68320 12.08098 29407 ft 438 kts 345°
2026-05-05 14:47 56.71351 12.07274 29784 ft 441 kts 345°
2026-05-05 14:47 56.74359 12.06441 30120 ft 443 kts 344°
2026-05-05 14:47 56.77411 12.05586 30496 ft 443 kts 344°
2026-05-05 14:48 56.80451 12.04731 31015 ft 440 kts 344°
2026-05-05 14:48 56.83467 12.03880 31522 ft 437 kts 343°
2026-05-05 14:48 56.86469 12.03029 31947 ft 436 kts 343°
2026-05-05 14:48 56.89469 12.02173 32298 ft 437 kts 343°
2026-05-05 14:49 56.92481 12.01312 32684 ft 436 kts 343°
2026-05-05 14:49 56.95486 12.00452 33119 ft 435 kts 343°
2026-05-05 14:49 56.98442 11.99607 33533 ft 434 kts 343°
2026-05-05 14:49 57.01431 11.98750 33909 ft 433 kts 343°
2026-05-05 14:50 57.04412 11.97893 34220 ft 433 kts 343°
2026-05-05 14:50 57.07395 11.97035 34493 ft 434 kts 343°
2026-05-05 14:50 57.10387 11.96172 34829 ft 433 kts 343°
2026-05-05 14:50 57.13336 11.95322 35139 ft 433 kts 343°
2026-05-05 14:51 57.16321 11.94459 35392 ft 433 kts 343°
2026-05-05 14:51 57.19303 11.93595 35635 ft 434 kts 343°
2026-05-05 14:51 57.22297 11.92727 35933 ft 434 kts 343°
2026-05-05 14:51 57.25274 11.91860 35943 ft 439 kts 343°
2026-05-05 14:52 57.31310 11.90102 35960 ft 438 kts 343°
2026-05-05 14:52 57.37278 11.88370 36005 ft 431 kts 343°
2026-05-05 14:53 57.43185 11.86637 35976 ft 431 kts 343°
2026-05-05 14:53 57.49135 11.84885 35958 ft 432 kts 343°
2026-05-05 14:54 57.55050 11.83139 35965 ft 432 kts 343°
2026-05-05 14:54 57.61003 11.81377 35963 ft 433 kts 343°
2026-05-05 14:55 57.66950 11.79611 36002 ft 433 kts 343°
2026-05-05 14:55 57.72926 11.77830 35977 ft 434 kts 343°
2026-05-05 14:56 57.78880 11.76051 35966 ft 435 kts 343°
2026-05-05 14:56 57.84860 11.74259 35966 ft 435 kts 343°
2026-05-05 14:57 57.90825 11.72462 35605 ft 436 kts 343°
2026-05-05 14:57 57.93814 11.71566 35302 ft 429 kts 342°
2026-05-05 14:57 57.96758 11.70682 34903 ft 425 kts 342°
2026-05-05 14:58 57.99647 11.69810 34502 ft 422 kts 341°
2026-05-05 14:58 58.02537 11.68934 34104 ft 418 kts 341°
2026-05-05 14:58 58.05414 11.68059 33665 ft 415 kts 341°
2026-05-05 14:58 58.08261 11.67191 33216 ft 411 kts 341°
2026-05-05 14:59 58.11072 11.66333 32808 ft 407 kts 341°
2026-05-05 14:59 58.13820 11.65495 32433 ft 403 kts 341°
2026-05-05 14:59 58.16580 11.64652 32033 ft 399 kts 340°
2026-05-05 14:59 58.19323 11.63807 31677 ft 395 kts 340°
2026-05-05 15:00 58.22027 11.62959 31327 ft 391 kts 340°
2026-05-05 15:00 58.23796 11.62398 31080 ft 389 kts 340°
2026-05-05 15:00 58.27345 11.61266 30593 ft 384 kts 340°
2026-05-05 15:00 58.29950 11.60433 30233 ft 382 kts 339°
2026-05-05 15:01 58.32565 11.59595 29857 ft 379 kts 339°
2026-05-05 15:01 58.35157 11.58765 29433 ft 376 kts 339°
2026-05-05 15:01 58.37721 11.57945 29060 ft 371 kts 339°
2026-05-05 15:01 58.40263 11.57130 28669 ft 368 kts 339°
2026-05-05 15:02 58.42775 11.56325 28310 ft 364 kts 339°
2026-05-05 15:02 58.45266 11.55524 27935 ft 360 kts 339°
2026-05-05 15:02 58.47695 11.54742 27573 ft 357 kts 339°
2026-05-05 15:02 58.50135 11.53955 27214 ft 354 kts 339°
2026-05-05 15:03 58.52562 11.53171 26927 ft 351 kts 338°
2026-05-05 15:03 58.54969 11.52391 26537 ft 349 kts 338°
2026-05-05 15:03 58.57354 11.51617 26168 ft 347 kts 338°
2026-05-05 15:03 58.59733 11.50844 25809 ft 345 kts 338°
2026-05-05 15:04 58.62091 11.50078 25456 ft 343 kts 338°
2026-05-05 15:04 58.64440 11.49313 25108 ft 340 kts 338°
2026-05-05 15:04 58.66756 11.48562 24968 ft 335 kts 338°
2026-05-05 15:04 58.69043 11.47822 24877 ft 331 kts 338°
2026-05-05 15:05 58.73738 11.46257 23755 ft 349 kts 339°
2026-05-05 15:05 58.76132 11.45473 23344 ft 348 kts 339°
2026-05-05 15:05 58.78518 11.44696 22934 ft 345 kts 339°
2026-05-05 15:06 58.80854 11.43937 22567 ft 342 kts 339°
2026-05-05 15:06 58.83192 11.43176 22278 ft 339 kts 338°
2026-05-05 15:06 58.85512 11.42416 21898 ft 336 kts 338°
2026-05-05 15:06 58.87805 11.41661 21534 ft 333 kts 338°
2026-05-05 15:07 58.90081 11.40911 21190 ft 330 kts 338°
2026-05-05 15:07 58.92344 11.40163 20846 ft 328 kts 338°
2026-05-05 15:07 58.94565 11.39428 20511 ft 325 kts 338°
2026-05-05 15:07 58.96790 11.38691 20167 ft 322 kts 338°
2026-05-05 15:08 58.98996 11.37959 19845 ft 320 kts 337°
2026-05-05 15:08 59.01189 11.37230 19520 ft 317 kts 337°
2026-05-05 15:08 59.03331 11.36516 19196 ft 315 kts 337°
2026-05-05 15:08 59.05485 11.35800 18892 ft 313 kts 337°
2026-05-05 15:09 59.07632 11.35080 18547 ft 311 kts 337°
2026-05-05 15:09 59.09755 11.34371 18244 ft 308 kts 337°
2026-05-05 15:09 59.11860 11.33667 17947 ft 305 kts 336°
2026-05-05 15:09 59.13949 11.32965 17568 ft 304 kts 337°
2026-05-05 15:10 59.16026 11.32268 17237 ft 301 kts 337°
2026-05-05 15:10 59.18080 11.31582 16924 ft 297 kts 338°
2026-05-05 15:10 59.20103 11.31039 16679 ft 296 kts 341°
2026-05-05 15:10 59.22152 11.30625 16376 ft 294 kts 342°
2026-05-05 15:11 59.24180 11.30239 16057 ft 291 kts 342°
2026-05-05 15:11 59.26196 11.29851 15765 ft 288 kts 343°
2026-05-05 15:11 59.28184 11.29460 15452 ft 286 kts 343°
2026-05-05 15:11 59.30136 11.29068 15155 ft 284 kts 343°
2026-05-05 15:12 59.32096 11.28669 14859 ft 282 kts 344°
2026-05-05 15:12 59.34049 11.28269 14555 ft 280 kts 344°
2026-05-05 15:12 59.35982 11.27871 14270 ft 278 kts 345°
2026-05-05 15:12 59.37902 11.27474 13971 ft 276 kts 345°
2026-05-05 15:13 59.39812 11.27079 13685 ft 274 kts 346°
2026-05-05 15:13 59.41707 11.26684 13386 ft 272 kts 348°
2026-05-05 15:13 59.43554 11.26303 13094 ft 269 kts 348°
2026-05-05 15:13 59.45406 11.25919 12806 ft 266 kts 348°
2026-05-05 15:14 59.47238 11.25497 12504 ft 263 kts 347°
2026-05-05 15:14 59.49056 11.25058 12200 ft 262 kts 347°
2026-05-05 15:14 59.50859 11.24622 11904 ft 260 kts 348°
2026-05-05 15:14 59.52633 11.24196 11610 ft 259 kts 348°
2026-05-05 15:15 59.54415 11.23769 11366 ft 255 kts 348°
2026-05-05 15:15 59.56157 11.23355 11269 ft 249 kts 348°
2026-05-05 15:15 59.57880 11.22942 11151 ft 249 kts 348°
2026-05-05 15:15 59.59579 11.22534 11058 ft 249 kts 348°
2026-05-05 15:16 59.61320 11.22402 10912 ft 255 kts
2026-05-05 15:16 59.62925 11.23921 10886 ft 261 kts 37°
2026-05-05 15:16 59.64007 11.26789 10887 ft 263 kts 61°
2026-05-05 15:16 59.64670 11.30158 10883 ft 263 kts 67°
2026-05-05 15:17 59.65265 11.33616 10890 ft 266 kts 68°
2026-05-05 15:17 59.65940 11.37024 10843 ft 262 kts 53°
2026-05-05 15:17 59.67245 11.39323 10534 ft 247 kts 16°
2026-05-05 15:17 59.68890 11.39776 10069 ft 238 kts 351°
2026-05-05 15:18 59.70474 11.39116 9596 ft 235 kts 334°
2026-05-05 15:18 59.71904 11.37613 9137 ft 231 kts 326°
2026-05-05 15:18 59.73264 11.35906 8701 ft 230 kts 324°
2026-05-05 15:18 59.74603 11.34189 8390 ft 226 kts 324°
2026-05-05 15:19 59.75918 11.32507 8161 ft 226 kts 324°
2026-05-05 15:19 59.77248 11.30810 7948 ft 229 kts 324°
2026-05-05 15:19 59.78572 11.29127 7708 ft 229 kts 324°
2026-05-05 15:19 59.79916 11.27422 7483 ft 227 kts 325°
2026-05-05 15:20 59.81228 11.25762 7371 ft 220 kts 325°
2026-05-05 15:20 59.82498 11.24155 7177 ft 222 kts 324°
2026-05-05 15:20 59.83838 11.22460 6968 ft 225 kts 325°
2026-05-05 15:20 59.85097 11.20613 6712 ft 224 kts 318°
2026-05-05 15:21 59.86259 11.18641 6535 ft 220 kts 317°
2026-05-05 15:21 59.87407 11.16670 6396 ft 217 kts 317°
2026-05-05 15:21 59.88550 11.14716 6252 ft 217 kts 317°
2026-05-05 15:21 59.89705 11.12748 6118 ft 218 kts 317°
2026-05-05 15:22 59.90866 11.10780 5961 ft 219 kts 317°
2026-05-05 15:22 59.92016 11.08833 5814 ft 219 kts 317°
2026-05-05 15:22 59.93179 11.06872 5666 ft 218 kts 318°
2026-05-05 15:22 59.94342 11.04911 5514 ft 219 kts 318°
2026-05-05 15:23 59.95506 11.02949 5381 ft 219 kts 318°
2026-05-05 15:23 59.96671 11.00983 5214 ft 219 kts 318°
2026-05-05 15:23 59.97858 10.98978 4713 ft 229 kts 318°
2026-05-05 15:23 59.99180 10.97302 4620 ft 224 kts 341°
2026-05-05 15:24 60.00734 10.97287 4426 ft 227 kts
2026-05-05 15:24 60.02279 10.97964 4085 ft 226 kts 11°
2026-05-05 15:24 60.03761 10.98812 3775 ft 216 kts 12°
2026-05-05 15:24 60.05178 10.99645 3486 ft 208 kts 12°
2026-05-05 15:25 60.06083 11.00175 3315 ft 202 kts 12°
2026-05-05 15:25 60.07400 11.00943 3045 ft 191 kts 11°
2026-05-05 15:25 60.08654 11.01666 2789 ft 182 kts 11°
2026-05-05 15:25 60.09853 11.02358 2518 ft 176 kts 11°
2026-05-05 15:26 60.11002 11.03030 2286 ft 166 kts
2026-05-05 15:26 60.12090 11.03654 2060 ft 159 kts 11°
2026-05-05 15:26 60.13110 11.04248 1835 ft 150 kts
2026-05-05 15:26 60.14094 11.04817 1650 ft 146 kts
2026-05-05 15:27 60.15037 11.05359 1451 ft 139 kts 11°
2026-05-05 15:27 60.15957 11.05896 1221 ft 135 kts 12°
2026-05-05 15:27 60.16858 11.06435 1084 ft 135 kts 14°
2026-05-05 15:27 60.17763 11.06950 892 ft 134 kts 10°
2026-05-05 15:28 60.18649 11.07463 713 ft 129 kts 10°
2026-05-05 15:28 60.19443 11.07914 679 ft 105 kts 16°
2026-05-05 15:28 60.20024 11.08253 680 ft 70 kts 17°
2026-05-05 15:28 60.20231 11.08482 682 ft 14 kts 54°
2026-05-05 15:29 60.20246 11.08630 684 ft 8 kts 103°
2026-05-05 15:29 60.20237 11.08696 684 ft 0 kts 106°
2026-05-05 15:30 60.20232 11.08730 686 ft 3 kts 106°
2026-05-05 15:30 60.20221 11.08804 680 ft 8 kts 106°
2026-05-05 15:30 60.20201 11.08933 682 ft 11 kts 109°
2026-05-05 15:30 60.20173 11.09116 680 ft 16 kts 105°
2026-05-05 15:31 60.20142 11.09331 681 ft 16 kts 107°
2026-05-05 15:31 60.20113 11.09538 681 ft 15 kts 105°
2026-05-05 15:31 60.20085 11.09732 688 ft 14 kts 106°
2026-05-05 15:31 60.20057 11.09925 690 ft 14 kts 105°
2026-05-05 15:32 60.20031 11.10108 690 ft 13 kts 106°
2026-05-05 15:32 60.20007 11.10281 685 ft 13 kts 106°
2026-05-05 15:32 60.19982 11.10451 686 ft 13 kts 106°
2026-05-05 15:32 60.19925 11.10593 686 ft 14 kts 184°
2026-05-05 15:33 60.19830 11.10541 688 ft 14 kts 196°
2026-05-05 15:33 60.19741 11.10490 690 ft 13 kts 196°
2026-05-05 15:33 60.19654 11.10441 688 ft 13 kts 195°
2026-05-05 15:33 60.19570 11.10391 688 ft 11 kts 197°
2026-05-05 15:34 60.19541 11.10338 685 ft 0 kts 255°
2026-05-05 15:34 60.19539 11.10330 685 ft 2 kts 246°
2026-05-05 15:35 60.19538 11.10329 684 ft 2 kts 246°
2026-05-05 15:35 60.19526 11.10258 689 ft 8 kts 260°
2026-05-05 15:35 60.19520 11.10149 686 ft 1 kts 264°